When you browse on this site, cookies collect data to enhance your experience and personalize the content and advertising you see.
Visit our Privacy Policy to learn more. By continuing to use the site, you agree to this use of cookies and data.
  • In Österreich
  • Länderverzeichnis
  • Für 7 Tage
  • Wassertemperatur
  • Satellitenkarten
  • Wetterkarte
  • News
  • Widgets
  • user-avatar
    Anmelden

    Stündliche Wetter Saurimo

    Heute, 23 April, Dienstag

    Zeit Temperatur Niederschläge Wind Luftdruck Luftfeuchtigkeit
    00:00 +21°C° 0 mm 1 m/S 670 mmHg 96%
    01:00 +19°C° 0 mm 0 m/S 670 mmHg 96%
    02:00 +19°C° 0 mm 0 m/S 670 mmHg 96%
    03:00 +19°C° 0 mm 0 m/S 670 mmHg 95%
    04:00 +19°C° 0 mm 0 m/S 669 mmHg 95%
    05:00 +19°C° 0.2 mm 0 m/S 670 mmHg 94%
    06:00 +19°C° 0.2 mm 0 m/S 670 mmHg 94%
    07:00 +20°C° 0.2 mm 0 m/S 671 mmHg 93%
    08:00 +21°C° 0.1 mm 0 m/S 671 mmHg 87%
    09:00 +22°C° 0.1 mm 0 m/S 672 mmHg 82%
    10:00 +23°C° 0.1 mm 0 m/S 672 mmHg 76%
    11:00 +27°C° 0 mm 1 m/S 672 mmHg 68%
    12:00 +28°C° 0 mm 1 m/S 672 mmHg 60%
    13:00 +30°C° 0 mm 1 m/S 671 mmHg 52%
    14:00 +29°C° 0 mm 1 m/S 671 mmHg 55%
    15:00 +28°C° 0 mm 2 m/S 670 mmHg 58%
    16:00 +28°C° 0 mm 2 m/S 670 mmHg 62%
    17:00 +26°C° 0 mm 1 m/S 670 mmHg 65%
    18:00 +25°C° 0 mm 1 m/S 670 mmHg 68%
    19:00 +21°C° 0 mm 0 m/S 670 mmHg 71%
    20:00 +21°C° 0 mm 0 m/S 670 mmHg 70%
    21:00 +21°C° 0 mm 0 m/S 671 mmHg 70%
    22:00 +20°C° 0 mm 0 m/S 671 mmHg 70%
    23:00 +20°C° 0 mm 0 m/S 671 mmHg 71%

    Morgen, 24 April, Mittwoch

    Zeit Temperatur Niederschläge Wind Luftdruck Luftfeuchtigkeit
    00:00 +22°C° 0 mm 1 m/S 671 mmHg 72%
    01:00 +22°C° 0 mm 1 m/S 671 mmHg 73%
    02:00 +22°C° 0 mm 1 m/S 670 mmHg 77%
    03:00 +21°C° 0 mm 1 m/S 670 mmHg 80%
    04:00 +21°C° 0 mm 1 m/S 670 mmHg 83%
    05:00 +22°C° 0 mm 1 m/S 670 mmHg 83%
    06:00 +21°C° 0 mm 2 m/S 671 mmHg 82%
    07:00 +23°C° 0 mm 2 m/S 671 mmHg 82%
    08:00 +25°C° 0 mm 2 m/S 672 mmHg 74%
    09:00 +27°C° 0 mm 2 m/S 672 mmHg 65%
    10:00 +30°C° 0 mm 2 m/S 673 mmHg 57%
    11:00 +31°C° 0 mm 2 m/S 672 mmHg 54%
    12:00 +32°C° 0 mm 2 m/S 672 mmHg 50%
    13:00 +34°C° 0 mm 2 m/S 671 mmHg 47%
    14:00 +32°C° 0.1 mm 1 m/S 671 mmHg 50%
    15:00 +31°C° 0.1 mm 1 m/S 670 mmHg 53%
    16:00 +31°C° 0.1 mm 1 m/S 670 mmHg 56%
    17:00 +29°C° 0 mm 1 m/S 670 mmHg 61%
    18:00 +28°C° 0 mm 1 m/S 670 mmHg 65%
    19:00 +24°C° 0 mm 0 m/S 671 mmHg 70%
    20:00 +25°C° 1 mm 1 m/S 671 mmHg 77%
    21:00 +24°C° 1 mm 1 m/S 671 mmHg 84%
    22:00 +22°C° 1 mm 1 m/S 671 mmHg 91%
    23:00 +22°C° 2.3 mm 1 m/S 671 mmHg 92%

    übermorgen, 25 April, Donnerstag

    Zeit Temperatur Niederschläge Wind Luftdruck Luftfeuchtigkeit
    00:00 +22°C° 2.3 mm 1 m/S 671 mmHg 93%
    01:00 +21°C° 2.3 mm 1 m/S 671 mmHg 94%
    02:00 +21°C° 0.8 mm 1 m/S 670 mmHg 94%
    03:00 +21°C° 0.8 mm 1 m/S 670 mmHg 94%
    04:00 +21°C° 0.8 mm 1 m/S 670 mmHg 94%
    05:00 +22°C° 0 mm 1 m/S 671 mmHg 92%
    06:00 +22°C° 0 mm 1 m/S 671 mmHg 91%
    07:00 +23°C° 0 mm 1 m/S 672 mmHg 90%
    08:00 +25°C° 0.5 mm 2 m/S 672 mmHg 83%
    09:00 +26°C° 0.5 mm 2 m/S 672 mmHg 76%
    10:00 +28°C° 0.5 mm 2 m/S 673 mmHg 69%
    11:00 +29°C° 0.9 mm 2 m/S 672 mmHg 65%
    12:00 +30°C° 0.9 mm 2 m/S 671 mmHg 61%
    13:00 +31°C° 0.9 mm 1 m/S 671 mmHg 57%
    14:00 +30°C° 1 mm 1 m/S 670 mmHg 63%
    15:00 +29°C° 1 mm 1 m/S 670 mmHg 69%
    16:00 +28°C° 1 mm 1 m/S 669 mmHg 74%
    17:00 +26°C° 0.2 mm 1 m/S 669 mmHg 78%
    18:00 +25°C° 0.2 mm 1 m/S 670 mmHg 82%
    19:00 +23°C° 0.2 mm 1 m/S 670 mmHg 86%
    20:00 +23°C° 0.1 mm 1 m/S 670 mmHg 86%
    21:00 +23°C° 0.1 mm 1 m/S 670 mmHg 86%
    22:00 +22°C° 0.1 mm 1 m/S 670 mmHg 86%
    23:00 +20°C° 0.2 mm 0 m/S 670 mmHg 87%

    26 April, Freitag

    Zeit Temperatur Niederschläge Wind Luftdruck Luftfeuchtigkeit
    00:00 +20°C° 0.2 mm 0 m/S 670 mmHg 88%
    01:00 +19°C° 0.2 mm 0 m/S 669 mmHg 89%
    02:00 +19°C° 0 mm 0 m/S 669 mmHg 90%
    03:00 +19°C° 0 mm 0 m/S 669 mmHg 90%
    04:00 +21°C° 0 mm 1 m/S 669 mmHg 91%
    05:00 +21°C° 0 mm 1 m/S 670 mmHg 90%
    06:00 +22°C° 0 mm 1 m/S 670 mmHg 88%
    07:00 +23°C° 0 mm 1 m/S 671 mmHg 87%
    08:00 +25°C° 0 mm 1 m/S 671 mmHg 77%
    09:00 +28°C° 0 mm 1 m/S 672 mmHg 68%
    10:00 +30°C° 0 mm 1 m/S 673 mmHg 58%
    11:00 +30°C° 0 mm 2 m/S 672 mmHg 56%
    12:00 +31°C° 0 mm 2 m/S 671 mmHg 54%
    13:00 +31°C° 0 mm 2 m/S 670 mmHg 52%
    14:00 +30°C° 0 mm 1 m/S 670 mmHg 55%
    15:00 +30°C° 0 mm 1 m/S 670 mmHg 58%
    16:00 +30°C° 0 mm 1 m/S 669 mmHg 62%
    17:00 +28°C° 0 mm 1 m/S 670 mmHg 66%
    18:00 +26°C° 0 mm 1 m/S 670 mmHg 69%
    19:00 +25°C° 0 mm 1 m/S 670 mmHg 73%
    20:00 +24°C° 0 mm 1 m/S 670 mmHg 76%
    21:00 +24°C° 0 mm 1 m/S 670 mmHg 78%
    22:00 +23°C° 0 mm 1 m/S 670 mmHg 81%
    23:00 +23°C° 0 mm 1 m/S 670 mmHg 83%

    27 April, Samstag

    Zeit Temperatur Niederschläge Wind Luftdruck Luftfeuchtigkeit
    00:00 +22°C° 0 mm 1 m/S 669 mmHg 84%
    01:00 +22°C° 0 mm 1 m/S 669 mmHg 86%
    02:00 +22°C° 0 mm 1 m/S 669 mmHg 87%
    03:00 +21°C° 0 mm 1 m/S 669 mmHg 87%
    04:00 +21°C° 0 mm 1 m/S 669 mmHg 88%
    05:00 +21°C° 0 mm 1 m/S 669 mmHg 86%
    06:00 +22°C° 0 mm 1 m/S 670 mmHg 83%
    07:00 +23°C° 0 mm 1 m/S 671 mmHg 81%
    08:00 +25°C° 0 mm 1 m/S 671 mmHg 72%
    09:00 +27°C° 0 mm 2 m/S 672 mmHg 63%
    10:00 +30°C° 0 mm 2 m/S 672 mmHg 53%
    11:00 +31°C° 0 mm 2 m/S 672 mmHg 51%
    12:00 +32°C° 0 mm 1 m/S 671 mmHg 48%
    13:00 +32°C° 0 mm 1 m/S 670 mmHg 45%
    14:00 +32°C° 0 mm 1 m/S 670 mmHg 49%
    15:00 +31°C° 0 mm 1 m/S 670 mmHg 53%
    16:00 +30°C° 0 mm 1 m/S 669 mmHg 57%
    17:00 +29°C° 0 mm 1 m/S 670 mmHg 59%
    18:00 +25°C° 0 mm 0 m/S 670 mmHg 61%
    19:00 +24°C° 0 mm 0 m/S 671 mmHg 64%
    20:00 +24°C° 0 mm 0 m/S 671 mmHg 65%
    21:00 +24°C° 0 mm 0 m/S 671 mmHg 66%
    22:00 +23°C° 0 mm 0 m/S 671 mmHg 67%
    23:00 +22°C° 0 mm 0 m/S 670 mmHg 71%

    28 April, Sonntag

    Zeit Temperatur Niederschläge Wind Luftdruck Luftfeuchtigkeit
    00:00 +21°C° 0 mm 0 m/S 670 mmHg 75%
    01:00 +20°C° 0 mm 0 m/S 669 mmHg 79%
    02:00 +22°C° 0 mm 1 m/S 669 mmHg 80%
    03:00 +22°C° 0 mm 1 m/S 669 mmHg 81%
    04:00 +21°C° 0 mm 1 m/S 669 mmHg 82%
    05:00 +22°C° 0 mm 1 m/S 670 mmHg 80%
    06:00 +23°C° 0 mm 2 m/S 670 mmHg 77%
    07:00 +23°C° 0 mm 2 m/S 671 mmHg 75%
    08:00 +25°C° 0 mm 2 m/S 671 mmHg 67%
    09:00 +28°C° 0 mm 2 m/S 672 mmHg 60%
    10:00 +30°C° 0 mm 3 m/S 672 mmHg 52%
    11:00 +31°C° 0 mm 2 m/S 672 mmHg 49%
    12:00 +32°C° 0 mm 2 m/S 671 mmHg 45%
    13:00 +34°C° 0 mm 2 m/S 671 mmHg 42%
    14:00 +32°C° 0 mm 2 m/S 671 mmHg 44%
    15:00 +32°C° 0 mm 2 m/S 670 mmHg 46%
    16:00 +31°C° 0 mm 2 m/S 670 mmHg 48%
    17:00 +29°C° 0 mm 1 m/S 670 mmHg 53%
    18:00 +27°C° 0 mm 1 m/S 670 mmHg 58%
    19:00 +25°C° 0 mm 1 m/S 670 mmHg 63%
    20:00 +24°C° 0 mm 1 m/S 671 mmHg 64%
    21:00 +24°C° 0 mm 1 m/S 671 mmHg 66%
    22:00 +23°C° 0 mm 1 m/S 671 mmHg 67%
    23:00 +23°C° 0 mm 1 m/S 671 mmHg 68%
    Mehr zeigen